Home   Weather   Qaanaaq   Past weeks
Flag for Greenland

Past Weather in Qaanaaq, Greenland — Yesterday and Last 2 Weeks

Now
49 °F

Partly sunny.


Feels Like: 44 °F
Forecast: 42 / 38 °F
Wind: 14 mph from Southeast

Location: Thule A. B.

Current Time: Jul 19, 2019 at 5:23:07 pm

Latest Report: Jul 19, 2019 at 4:56 pm


Visibility: N/A

Pressure: 29.63 "Hg

Humidity: 82%

Dew Point: 44 °F

Location of QaanaaqLocation

Past Weather in Qaanaaq — Graph

°F

Qaanaaq Temperature Yesterday

Maximum temperature yesterday: 52 °F (at 12:56 am)
Minimum temperature yesterday: 48 °F (at 12:02 pm)
Average temperature yesterday: 50 °F

High & Low Weather Summary for the Past Weeks

 TemperatureHumidityPressure
High62 °F (Jul 11, 4:56 pm)100% (Jul 4, 9:56 pm)30.21 "Hg (Jul 4, 9:56 pm)
Low37 °F (Jul 5, 1:56 am)34% (Jul 11, 2:56 pm)29.51 "Hg (Jul 19, 3:56 am)
Average48 °F76%29.88 "Hg
* Reported Jul 4 2:56 pm — Jul 19 2:56 pm, Qaanaaq. Weather by CustomWeather, © 2019

Note: Actual official high and low records may vary slightly from our data, if they occured in-between our weather recording intervals... More about our weather records

Advertising

Qaanaaq Weather History for the Previous 24 Hours

Scroll right to see more
 ConditionsComfort  
Time TempWeatherWind HumidityBarometerVisibility
2:56 pm
Fri, Jul 19
48 °FScattered clouds.No wind94%29.61 "HgN/A
1:56 pm46 °FPassing clouds.7 mph93%29.60 "HgN/A
12:56 pm50 °FPartly sunny.10 mph76%29.58 "HgN/A
12:25 pm52 °FPartly sunny.15 mph72%29.57 "HgN/A
11:56 am46 °FPassing clouds.3 mph87%29.57 "HgN/A
10:56 am48 °FSunny.5 mph87%29.56 "HgN/A
9:56 am48 °FPassing clouds.No wind82%29.55 "HgN/A
8:56 am50 °FPassing clouds.No wind82%29.53 "HgN/A
7:56 am50 °FSunny.No wind76%29.52 "HgN/A
6:56 am48 °FSunny.No wind87%29.51 "HgN/A
5:56 am48 °FSunny.No wind87%29.51 "HgN/A
4:56 am46 °FSunny.No wind93%29.51 "HgN/A
3:56 am46 °FSunny.No wind87%29.51 "HgN/A
2:56 am45 °FSunny.No wind93%29.52 "HgN/A
1:56 am45 °FSunny.3 mph100%29.54 "HgN/A
12:56 am46 °FPartly sunny.3 mph93%29.55 "HgN/A
11:56 pm
Thu, Jul 18
48 °FOvercast.5 mph87%29.57 "HgN/A
10:56 pm50 °FMostly cloudy.No wind76%29.57 "HgN/A
9:56 pm50 °FMostly cloudy.15 mph82%29.59 "HgN/A
8:56 pm48 °FOvercast.13 mph87%29.60 "HgN/A
7:56 pm48 °FOvercast.16 mph87%29.61 "HgN/A
6:56 pm50 °FMostly cloudy.14 mph76%29.62 "HgN/A
5:56 pm52 °FOvercast.10 mph72%29.62 "HgN/A
5:03 pm52 °FCloudy.21 mph72%29.62 "HgN/A
Weather by CustomWeather, © 2019

See weather overview